Regional Weather Roundup
Issued by NWS

Home | Current Version | Previous Version | Graphics & Text | Print | Product List | Glossary Off
Versions: 1 2 3 4 5 6 7 8 9 10 11 12 13 14 15 16 17 18 19 20 21 22 23 24 25 26 27 28 29 30 31 32 33 34 35 36 37 38 39 40 41 42 43 44 45 46 47 48 49 50

000
ASUS43 KFSD 101510
RWRSD

WEATHER ROUNDUP FOR SOUTH DAKOTA
NATIONAL WEATHER SERVICE SIOUX FALLS SD
900 AM CST SUN DEC 10 2017

NOTE: "FAIR" INDICATES FEW OR NO CLOUDS BELOW 12,000 FEET WITH NO
SIGNIFICANT WEATHER AND/OR OBSTRUCTIONS TO VISIBILITY.


SDZ001>005-009-010-012>017-101600-
NORTHWEST AND NORTH CENTRAL SOUTH DAKOTA

CITY           SKY/WX    TMP DP  RH WIND       PRES   REMARKS
BUFFALO          N/A     33  16  49 W13       30.12S WCI  24
FAITH            N/A     39  16  39 W22       30.12S
MOBRIDGE       CLEAR     37  22  54 NW12      30.05F
$$

SDZ012>016-024>037-041>051-057-063-072>074-101600-
SOUTHWEST AND SOUTH CENTRAL SOUTH DAKOTA

CITY           SKY/WX    TMP DP  RH WIND       PRES   REMARKS
RAPID CTY ARPT CLOUDY    44   7  21 NW9       30.21F
PIERRE         CLEAR     40  21  46 NW16      30.11R
CUSTER         CLOUDY    46  -6  11 NW10      30.27R
ELLSWORTH AFB  CLOUDY    47   7  19 NW13      30.20S
PHILIP         CLEAR     45  14  28 NW16      30.16F
PINE RIDGE     CLOUDY    35  15  44 SW7       30.28R WCI  29
SPEARFISH      FAIR      43   9  24 W13       30.25F
WINNER         FAIR      42  18  37 W13       30.13S
$$

SDZ004>011-016>023-039-040-101600-
NORTHEAST SOUTH DAKOTA

CITY           SKY/WX    TMP DP  RH WIND       PRES   REMARKS
ABERDEEN       CLOUDY    30  24  78 NW7       30.04S WCI  23
WATERTOWN      CLOUDY    28  25  88 NW10      30.00R WCI  19
BROOKINGS      CLOUDY    28  25  88 W7        30.02R WCI  21
SISSETON         N/A     28  23  81 NW6       30.01R WCI  22
$$

SDZ017-020-022-023-036>040-048>070-101600-
SOUTHEAST SOUTH DAKOTA

CITY           SKY/WX    TMP DP  RH WIND       PRES   REMARKS
SIOUX FALLS    CLOUDY    31  26  82 NW8       30.04S WCI  23
HURON          CLOUDY    28  24  85 W10       30.07S WCI  19
CHAMBERLAIN    CLEAR     41  23  48 NW9       30.11R
MITCHELL       CLOUDY    34  26  72 NW10      30.09R WCI  26
YANKTON        CLEAR     38  25  59 W14       30.09R
$$

ABBREVIATIONS USED IN REMARKS
   TC - TEMPERATURE IN CELSIUS
  WCI - WIND CHILL INDEX
   HX - HEAT INDEX
  VSB - VISIBILITY





USA.gov is the U.S. government's official web portal to all federal, state and local government web resources and services.